This is the latest recevied weather packets stored in our database for station/object OK1FRN-6. If no packets are shown the sender has not sent any weather packets the latest 1 day(s).
| Time | Temp. | Humidity | Pressure | Rain* | Wind** | Luminosity | Snow |
|---|---|---|---|---|---|---|---|
| 1777982979 | 28.89° C | 33% | 1007 hPa | - | 0.45 m/s, 22° | - | - |
| 1777982671 | 28.89° C | 33% | 1007.1 hPa | - | 0.89 m/s, 30° | - | - |
| 1777982363 | 28.33° C | 34% | 1007.2 hPa | - | 0.89 m/s, 28° | - | - |
| 1777982056 | 28.33° C | 34% | 1007.3 hPa | - | 0.89 m/s, 32° | - | - |
| 1777981441 | 28.33° C | 34% | 1007.3 hPa | - | 0.45 m/s, 17° | - | - |
| 1777981133 | 28.89° C | 32% | 1007.3 hPa | - | 0.89 m/s, 60° | - | - |
| 1777980518 | 28.89° C | 34% | 1007.5 hPa | - | 0.89 m/s, 356° | - | - |
| 1777980210 | 28.89° C | 34% | 1007.6 hPa | - | 0.45 m/s, 66° | - | - |
| 1777979903 | 28.89° C | 34% | 1007.6 hPa | - | 0.89 m/s, 355° | - | - |
| 1777979596 | 28.89° C | 35% | 1007.7 hPa | - | 0.89 m/s, 35° | - | - |
| 1777978980 | 28.89° C | 34% | 1007.7 hPa | - | 0.89 m/s, 3° | - | - |
| 1777978673 | 28.89° C | 36% | 1007.8 hPa | - | 1.34 m/s, 357° | - | - |
| 1777978057 | 27.78° C | 37% | 1007.9 hPa | - | 0.45 m/s, 61° | - | - |
| 1777977750 | 27.78° C | 37% | 1008 hPa | - | 0.89 m/s, 39° | - | - |
| 1777977443 | 27.78° C | 36% | 1008 hPa | - | 0.89 m/s, 84° | - | - |
| 1777977135 | 27.78° C | 37% | 1008.1 hPa | - | 0.89 m/s, 10° | - | - |
| 1777976828 | 27.78° C | 38% | 1008.1 hPa | - | 0.89 m/s, 39° | - | - |
| 1777976520 | 27.78° C | 36% | 1008.1 hPa | - | 0.89 m/s, 31° | - | - |
| 1777976213 | 27.78° C | 38% | 1008.1 hPa | - | 0.45 m/s, 41° | - | - |
| 1777975905 | 27.78° C | 36% | 1008.2 hPa | - | 0.45 m/s, 40° | - | - |
| 1777975598 | 27.22° C | 39% | 1008.2 hPa | - | 0.89 m/s, 32° | - | - |
| 1777975291 | 27.22° C | 39% | 1008.2 hPa | - | 0.89 m/s, 62° | - | - |
| 1777974983 | 27.22° C | 39% | 1008.2 hPa | - | 0.45 m/s, 53° | - | - |
| 1777974368 | 26.67° C | 40% | 1008.3 hPa | - | 0.89 m/s, 88° | - | - |
| 1777974061 | 27.22° C | 40% | 1008.4 hPa | - | 0.89 m/s, 60° | - | - |
* Rain since midnight (hover to see other rain measurements)
** Current wind speed in m/s (hover to see current wind gust speed)